sat.trackr.live / text

‹ back to catalog

STARLINK-34304

NORAD 64224 · 2025-117X

PAYLOAD ACTIVE UNKNOWN

§ Identity

Operator
Country
US
Launch date
2025-05-31
Launch site
AFWTR
Launch vehicle
Mass (kg)
RCS (m²)

Purposes: comms

External: N2YO · Heavens-Above · Gunter

§ Orbital elements

Epoch: 2026-05-25T00:29:26.989728Z

Period
94.10 min
Inclination
53.1582°
Eccentricity
0.0001360
Mean motion
15.30209435 rev/d
Perigee alt
474.3 km
Apogee alt
476.1 km
Semi-major
6,853.3 km
B*
4.9918e-4
RAAN
44.9524°
Arg perigee
68.7760°
Mean anomaly
291.3386°
Rev number
5,624

§ Raw data

STARLINK-343041 64224U 25117X   26145.02045127  .00014458  00000+0  49918-3 0  99982 64224  53.1582  44.9524 0001360  68.7760 291.3386 15.30209435 56247

JSON: /api/v1/satellites/64224 · /tle

For live sub-satellite position, see the globe view (requires WebGL).

§ Visibility from observer

Set your observer location to see the next 7 days of passes ≥ 10°. The values pass through the URL so the page stays shareable.

No JS? Fill the form by hand. The geolocation button needs JavaScript.